White Plains, CT

1:16 PM EST on February 20, 2018 (GMT -0500)
Westchester County

Weather History for KHPN - November, 2011

Change the Weather History Date:

Tuesday, November 1, 2011

  Actual Average Record
Temperature  
Mean Temperature 46 °F -  
Max Temperature 54 °F 54 °F 78 °F (1974)
Min Temperature 39 °F 39 °F 30 °F (1975)
Degree Days  
Heating Degree Days 19    
Moisture  
Dew Point 33 °F    
Average Humidity 63    
Maximum Humidity 89    
Minimum Humidity 44    
Precipitation  
Precipitation 0.00 in - - ()
Sea Level Pressure  
Sea Level Pressure 30.32 in    
Wind  
Wind Speed 4 mph (NNE)    
Max Wind Speed 12 mph    
Max Gust Speed -    
Visibility 10 miles    
Events      
Averages and records for this station are not official NWS values.
T = Trace of Precipitation, MM = Missing Value Source: NWS Daily Summary

Daily Weather History Graph

Daily Weather History Graph

Search for Another Location

Airport or City:

Trip Planner

Search our weather history database for the weather conditions in past years. The results will help you decide how hot, cold, wet, or windy it might be!

Date:

Astronomy

Nov. 01, 2011 Rise Set
Actual Time 7:25 AM EDT 5:50 PM EDT
Civil Twilight 6:56 AM EDT 6:19 PM EDT
Nautical Twilight 6:24 AM EDT 6:51 PM EDT
Astronomical Twilight 5:52 AM EDT 7:23 PM EDT
Moon 1:11 PM EDT (11/1) 11:29 PM EDT (11/1)
Length of Visible Light 11h 22m
Length of Day
10h 25m
Waxing Crescent, 39% of the Moon is Illuminated
Nov 1
Waxing Crescent
Nov 2
First Quarter
Nov 10
Full
Nov 18
Last Quarter
Nov 25
New

Hourly Weather History & Observations

Time (EDT) Temp. Windchill Dew Point Humidity Pressure Visibility Wind Dir Wind Speed Gust Speed Precip Events Conditions
12:56 AM 39.9 °F - 37.0 °F 89% 30.33 in 10.0 mi Calm Calm - N/A   Clear
1:56 AM 43.0 °F 40.3 °F 36.0 °F 76% 30.32 in 10.0 mi ENE 4.6 mph - N/A   Clear
2:56 AM 43.0 °F 41.3 °F 35.1 °F 74% 30.32 in 10.0 mi NNE 3.5 mph - N/A   Clear
3:56 AM 44.6 °F 42.2 °F 35.6 °F 71% 30.28 in 10.0 mi NE 4.6 mph - N/A   Clear
4:56 AM 44.1 °F 40.8 °F 35.1 °F 71% 30.30 in 10.0 mi NE 5.8 mph - N/A   Clear
5:56 AM 44.1 °F 41.5 °F 35.1 °F 71% 30.30 in 10.0 mi NNE 4.6 mph - N/A   Clear
6:56 AM 44.1 °F 39.5 °F 35.1 °F 71% 30.28 in 10.0 mi NE 8.1 mph - N/A   Clear
7:56 AM 44.6 °F 42.2 °F 35.6 °F 71% 30.29 in 10.0 mi NE 4.6 mph - N/A   Mostly Cloudy
8:56 AM 44.6 °F 41.4 °F 33.8 °F 66% 30.30 in 10.0 mi NE 5.8 mph - N/A   Scattered Clouds
9:56 AM 43.0 °F 40.3 °F 34.0 °F 71% 30.34 in 10.0 mi NE 4.6 mph - N/A   Scattered Clouds
10:56 AM 45.0 °F 41.8 °F 33.1 °F 63% 30.34 in 10.0 mi NE 5.8 mph - N/A   Clear
11:56 AM 48.0 °F - 34.0 °F 58% 30.33 in 10.0 mi NNE 5.8 mph - N/A   Clear
12:56 PM 50.0 °F - 33.8 °F 54% 30.30 in 10.0 mi North 9.2 mph - N/A   Clear
1:56 PM 52.0 °F - 32.0 °F 47% 30.30 in 10.0 mi North 9.2 mph - N/A   Partly Cloudy
2:56 PM 53.1 °F - 32.0 °F 45% 30.30 in 10.0 mi NNW 9.2 mph - N/A   Partly Cloudy
3:56 PM 53.6 °F - 32.0 °F 44% 30.29 in 10.0 mi NNW 11.5 mph - N/A   Clear
4:56 PM 51.8 °F - 30.2 °F 44% 30.30 in 10.0 mi North 6.9 mph - N/A   Clear
5:56 PM 50.0 °F - 28.9 °F 44% 30.32 in 10.0 mi NE 3.5 mph - N/A   Clear
6:56 PM 44.1 °F - 30.9 °F 60% 30.34 in 10.0 mi Calm Calm - N/A   Clear
7:56 PM 46.0 °F 43.9 °F 28.9 °F 51% 30.34 in 10.0 mi NNE 4.6 mph - N/A   Clear
8:56 PM 41.0 °F 38.0 °F 28.9 °F 62% 30.35 in 10.0 mi North 4.6 mph - N/A   Clear
9:56 PM 39.9 °F 37.8 °F 30.0 °F 68% 30.36 in 10.0 mi NW 3.5 mph - N/A   Clear
10:56 PM 39.0 °F - 30.9 °F 73% 30.35 in 10.0 mi Calm Calm - N/A   Clear
11:56 PM 39.0 °F 36.8 °F 30.9 °F 73% 30.35 in 10.0 mi NW 3.5 mph - N/A   Clear